CAPE
0 0 0 0 0 0 0 0 0 0 0 0 0 0 0 0 0 0 0 0 0 0 0 0 0 0 0 0 0 0 0 0 0 0 0 0 0 0 0 0 0 0 0 0 0
0 0 0 0 0 0 0 0 0 0 0 0 0 0 0 0 0 0 0 0 0 0 0 0 0 0 0 0 0 0 0 0 0 0 0 0 0 0 0 0 0 0 0 0 0
0 0 0 0 0 0 0 0 0 0 0 0 0 0 0 0 0 0 0 0 0 0 0 0 0 0 0 0 0 0 0 0 0 0 0 0 0 0 0 0 0 0 0 0 0
0 0 0 0 0 0 0 0 0 0 0 0 0 0 0 0 0 0 0 0 0 0 0 0 0 0 0 0 0 0 0 0 0 0 0 0 0 0 0 0 0 0 0 0 0
0 0 0 0 0 0 0 0 0 0 0 0 0 0 0 0 0 0 0 0 0 0 0 0 0 0 0 0 0 0 0 0 0 0 0 0 0 0 0 0 0 0 0 0 0
0 0 0 0 0 0 0 0 0 0 0 0 0 0 0 0 0 0 0 0 0 0 0 0 0 0 0 0 0 0 0 0 0 0 0 0 0 0 0 0 0 0 0 0 0
0 0 0 0 0 0 0 0 0 0 0 0 0 0 0 0 0 0 0 0 0 0 0 0 0 0 0 0 0 0 0 0 0 0 0 0 0 0 0 0 0 0 0 0 0
0 0 0 0 0 0 0 0 0 0 0 0 0 0 0 0 0 0 0 0 0 0 0 0 0 0 0 0 0 0 0 0 0 0 0 0 0 0 0 0 0 0 0 0 0
0 0 0 0 0 0 0 0 0 0 0 0 0 0 0 0 0 0 0 0 0 0 0 0 0 0 0 0 0 0 0 0 0 0 0 0 0 0 0 0 0 0 0 0 0
0 0 0 0 0 0 0 0 0 0 0 0 0 0 0 0 0 0 0 0 0 0 0 0 0 0 0 0 0 0 0 0 0 0 0 0 0 0 0 0 0 0 0 0 0
0 0 0 0 0 0 0 0 0 0 0 0 0 0 0 0 0 0 0 0 0 0 0 0 0 0 0 0 0 0 0 0 0 0 0 0 0 0 0 0 0 0 0 0 0
0 0 0 0 0 0 0 0 0 0 0 0 0 0 0 0 0 0 0 0 0 0 0 0 0 0 0 0 0 0 0 0 0 0 0 0 0 0 0 0 0 0 0 0 0
0 0 0 0 0 0 0 0 0 0 0 0 0 0 0 0 0 0 0 0 0 0 0 0 0 0 0 0 0 0 0 0 0 0 0 0 0 0 0 0 0 0 0 0 0
0 0 0 0 0 0 0 0 0 0 0 0 0 0 0 0 0 0 0 0 0 0 0 0 0 0 0 0 0 0 0 0 0 0 0 0 0 0 0 0 0 0 0 0 0
0 0 0 0 0 0 0 0 0 0 0 0 0 0 0 0 0 0 0 0 0 0 0 0 0 0 0 0 0 0 0 0 0 0 0 0 0 0 0 0 0 0 0 0 0
1 1 0 0 0 0 0 0 0 0 0 0 0 0 0 0 0 0 0 0 0 0 0 0 0 0 0 0 0 0 0 0 0 0 0 0 0 0 0 0 0 0 0 0 0
0 0 0 0 9 0 0 0 0 0 0 0 0 0 0 0 0 0 0 0 0 0 0 0 0 0 0 0 0 0 0 0 0 0 0 0 0 0 0 0 0 0 0 0 0
0 0 0 0 0 0 0 1 0 0 0 0 0 0 0 0 0 0 0 0 0 0 0 0 0 0 0 0 0 0 0 0 0 0 0 0 0 0 0 0 0 0 0 0 0
0 0 0 0 0 0 22 2 0 1 1 0 0 0 0 0 0 0 0 0 0 0 0 0 0 0 0 0 0 0 0 0 0 0 0 0 0 0 0 0 0 0 0 0 0
0 0 0 0 0 4 13 3 15 1 0 0 3 7 0 0 0 0 0 0 0 0 0 0 0 0 0 0 0 0 0 0 0 0 0 0 0 0 0 0 0 0 0 0 0
0 0 0 0 11 9 3 1 0 3 6 15 20 35 16 9 3 1 3 0 0 0 0 0 0 0 0 0 0 0 0 0 0 0 0 0 0 0 0 0 0 0 0 0 0
0 0 0 36 0 5 0 0 0 0 3 32 37 27 21 8 22 25 20 8 0 1 3 0 0 0 0 0 0 0 0 0 1 2 0 0 0 0 0 0 0 0 0 0 0
0 0 0 42 0 1 0 0 0 0 0 14 17 15 2 17 25 9 8 0 0 0 21 0 7 16 0 0 0 0 0 0 0 0 0 0 0 0 0 0 0 0 0 0 0
0 0 5 29 8 5 5 0 0 0 4 27 23 29 18 20 4 21 0 0 0 0 0 0 0 0 1 7 0 0 4 1 2 0 0 0 0 0 0 0 0 0 0 0 0
0 0 0 0 0 4 17 2 0 0 9 11 27 17 25 21 4 1 6 0 0 0 0 0 0 0 0 0 0 1 0 0 0 0 0 0 0 0 1 0 0 0 0 0 0
0 0 0 0 0 0 0 0 5 3 17 2 15 0 0 0 0 0 0 0 0 0 0 0 0 0 0 0 0 0 0 0 0 0 0 0 1 0 0 0 0 2 0 0 0
0 0 0 0 0 0 0 0 0 0 0 0 0 0 0 0 0 0 0 0 0 0 0 0 0 0 0 0 0 0 0 0 0 0 0 0 0 0 0 0 0 0 0 0 0
CIN
0 0 0 0 0 0 0 0 0 0 0 0 0 0 0 0 0 0 0 0 0 0 0 0 0 0 0 0 0 0 0 0 0 0 0 0 0 0 0 0 0 0 0 0 0
0 0 0 0 0 0 0 0 0 0 0 0 0 0 0 0 0 0 0 0 0 0 0 0 0 0 0 0 0 0 0 0 0 0 0 0 0 0 0 0 0 0 0 0 0
0 0 0 0 0 0 0 0 0 0 0 0 0 0 0 0 0 0 0 0 0 0 0 0 0 0 0 0 0 0 0 0 0 0 0 0 0 0 0 0 0 0 0 0 0
0 0 0 0 0 0 0 0 0 0 0 0 0 0 0 0 0 0 0 0 0 0 0 0 0 0 0 0 0 0 0 0 0 0 0 0 0 0 0 0 0 0 0 0 0
0 0 0 0 0 0 0 0 0 0 0 0 0 0 0 0 0 0 0 0 0 0 0 0 0 0 0 0 0 0 0 0 0 0 0 0 0 0 0 0 0 0 0 0 0
0 0 0 0 0 0 0 0 0 0 0 0 0 0 0 0 0 0 0 0 0 0 0 0 0 0 0 0 0 0 0 0 0 0 0 0 0 0 0 0 0 0 0 0 0
0 0 0 0 0 0 0 0 0 0 0 0 0 0 0 0 0 0 0 0 0 0 0 0 0 0 0 0 0 0 0 0 0 0 0 0 0 0 0 0 0 0 0 0 0
0 0 0 0 0 0 0 0 0 0 0 0 0 0 0 0 0 0 0 0 0 0 0 0 0 0 0 0 0 0 0 0 0 0 0 0 0 0 0 0 0 0 0 0 0
0 0 0 0 0 0 0 0 0 0 0 0 0 0 0 0 0 0 0 0 0 0 0 0 0 0 0 0 0 0 0 0 0 0 0 0 0 0 0 0 0 0 0 0 0
0 0 0 0 0 0 0 0 0 0 0 0 0 0 0 0 0 0 0 0 0 0 0 0 0 0 0 0 0 0 0 0 0 0 0 0 0 0 0 0 0 0 0 0 0
0 0 0 0 0 0 0 0 0 0 0 0 0 0 0 0 0 0 0 0 0 0 0 0 0 0 0 0 0 0 0 0 0 0 0 0 0 0 0 0 0 0 0 0 0
0 0 0 0 0 0 0 0 0 0 0 0 0 0 0 0 0 0 0 0 0 0 0 0 0 0 0 0 0 0 0 0 0 0 0 0 0 0 0 0 0 0 0 0 0
0 0 0 0 0 0 0 0 0 0 0 0 0 0 0 0 0 0 0 0 0 0 0 0 0 0 0 0 0 0 0 0 0 0 0 0 0 0 0 0 0 0 0 0 0
0 0 0 0 0 0 0 0 0 0 0 0 0 0 0 0 0 0 0 0 0 0 0 0 0 0 0 0 0 0 0 0 0 0 0 0 0 0 0 0 0 0 0 0 0
0 0 0 0 0 0 0 0 0 0 0 0 0 0 0 0 0 0 0 0 0 0 0 0 0 0 0 0 0 0 0 0 0 0 0 0 0 0 0 0 0 0 0 0 0
0 0 0 0 0 0 0 0 0 -2 0 0 0 0 0 0 0 0 0 0 0 0 0 0 0 0 0 0 0 0 0 0 0 0 0 0 0 0 0 0 0 0 0 0 0
0 0 0 0 -22 0 0 0 -0 0 0 0 0 0 0 0 0 0 0 0 0 0 0 0 0 0 0 0 0 0 0 0 0 0 0 0 0 0 0 0 0 0 0 0 0
0 0 0 -7 0 0 0 -1 -0 0 0 0 0 0 0 0 0 0 0 0 0 0 0 0 0 0 0 0 0 0 0 0 0 0 0 0 0 0 0 0 0 0 0 0 0
0 0 0 0 0 0 -7 -2 -1 -5 -8 -2 0 0 0 0 0 0 0 0 0 0 0 0 0 0 0 0 0 0 0 0 0 0 0 0 0 0 0 0 0 0 0 0 0
0 0 0 0 0 -11 -6 0 -2 -5 0 0 -1 -6 0 0 -5 0 0 0 0 0 0 0 0 0 0 0 0 0 0 0 0 0 0 0 0 0 0 0 0 0 0 0 0
0 0 0 0 -21 -2 0 -0 -0 -4 -2 -0 -1 -3 -7 -6 -31 -14 -5 0 0 0 0 0 0 0 0 0 0 0 0 0 0 0 -7 0 0 0 0 0 0 0 0 0 0
0 0 0 -1 -0 -0 0 0 0 0 -3 -9 -2 -2 -2 -4 -1 -3 -6 -3 0 -35 -37 0 0 -8 0 0 0 0 0 0 -17 -10 0 0 0 0 0 0 0 0 0 0 0
0 0 -1 -1 0 0 0 0 -1 0 0 -2 -1 -6 -1 -1 -0 -1 -1 -5 0 0 -5 -5 -5 -6 0 0 0 0 0 0 0 0 -0 -0 0 0 0 0 0 0 0 0 0
0 0 -1 -1 -0 -1 -0 0 -0 0 -1 -1 -2 -2 -0 0 -21 -5 0 -0 0 0 0 0 0 -8 -0 -3 0 0 -1 0 0 0 0 0 0 0 -1 0 0 0 0 0 0
0 0 0 -0 -1 -3 -0 -1 0 -1 -2 -4 -4 -2 -1 0 0 -2 -0 0 0 0 0 -1 0 0 -0 0 0 0 0 0 0 0 0 0 0 0 0 0 0 0 0 0 0
0 0 0 0 0 0 0 0 -0 -1 -0 -3 -1 0 0 0 0 0 0 0 0 0 0 0 0 0 0 0 0 0 0 0 0 0 0 0 -3 0 0 0 0 0 0 0 0
0 0 0 0 0 0 0 0 0 0 0 0 0 0 0 0 0 0 0 0 0 0 0 0 0 0 0 0 0 0 0 0 0 0 0 0 0 0 0 0 0 0 0 0 0
Wind_Speed
23 23 23 24 23 24 24 24 24 25 25 25 26 26 27 26 23 18 13 12 12 7 11 11 13 14 15 15 15 15 18 19 20 20 19 18 20 16 15 15 15 11 10 13 15
23 24 24 25 25 26 26 26 27 27 27 27 27 28 28 27 22 19 15 12 10 7 10 11 14 14 16 17 16 16 19 19 17 19 21 22 21 21 19 18 19 15 11 14 12
24 25 25 26 27 27 28 29 29 29 29 28 28 29 29 25 26 18 17 10 8 7 11 13 13 16 20 19 18 19 21 21 22 21 23 25 25 22 22 18 18 20 19 15 11
25 26 27 27 28 29 30 31 31 30 30 29 28 28 28 21 26 16 17 12 10 11 12 14 15 18 21 22 20 24 22 22 25 24 26 28 28 26 20 16 25 22 19 18 12
26 27 28 29 30 31 32 33 32 31 30 29 29 29 23 23 22 19 17 13 11 11 12 14 17 20 23 23 23 23 26 25 25 27 28 30 22 18 17 17 24 23 18 14 14
27 28 29 30 32 33 34 35 34 33 31 29 27 26 23 28 20 15 14 13 12 11 14 14 18 18 25 26 25 28 29 31 29 27 29 27 20 22 15 30 24 24 16 14 13
28 28 29 31 33 35 36 37 37 34 30 27 24 22 25 21 21 17 16 18 14 15 17 16 16 18 21 28 25 29 37 40 32 31 24 23 17 15 16 33 37 33 20 17 13
28 29 30 32 33 36 37 38 38 33 27 22 19 21 29 23 20 20 18 20 17 16 18 18 16 20 23 25 31 34 34 43 36 25 27 22 32 39 35 28 29 36 31 26 18
27 29 30 32 34 36 37 36 29 27 23 16 21 23 31 21 23 21 17 19 16 17 17 17 17 22 24 30 39 34 39 24 45 24 27 19 23 21 36 28 25 25 23 22 22
28 29 30 32 34 36 37 28 25 25 22 21 22 27 26 26 21 19 17 14 20 18 21 22 25 28 29 30 38 42 42 37 39 44 32 27 28 26 32 31 28 26 26 26 27
27 29 30 32 34 36 32 28 30 30 26 29 28 28 29 24 21 23 19 19 21 24 28 25 29 30 33 29 35 38 41 50 40 39 46 28 36 28 27 28 27 25 25 23 24
29 29 31 32 33 34 27 28 28 29 42 32 33 34 32 28 32 25 18 23 24 28 26 30 33 31 32 34 38 40 45 48 46 38 38 47 59 42 30 24 21 19 20 19 30
30 31 30 32 33 27 27 27 24 26 37 39 31 32 30 25 32 31 19 23 27 28 27 32 34 31 34 37 39 38 40 42 45 45 43 53 60 39 30 22 21 24 24 36 36
31 31 30 31 29 27 26 24 23 26 42 40 30 25 21 20 26 21 15 19 23 30 28 34 28 29 29 33 34 43 35 40 43 44 47 37 70 40 42 33 28 29 23 27 36
32 28 26 23 26 26 24 22 22 25 44 28 24 19 18 19 19 20 15 18 25 26 23 28 27 27 31 33 30 42 35 38 40 42 48 38 42 48 40 41 36 24 21 36 35
21 20 18 19 22 24 19 21 26 33 42 28 24 25 24 24 25 21 19 19 21 26 28 31 29 31 33 34 32 35 39 39 38 38 51 40 40 73 45 34 26 28 46 42 38
22 22 17 19 26 19 18 22 34 38 29 30 28 26 28 27 27 25 27 28 31 36 39 37 35 34 31 40 36 34 38 48 52 47 54 37 40 54 44 49 49 50 45 42 40
26 27 25 24 21 19 15 23 38 32 32 29 29 32 36 30 32 31 33 39 34 36 44 49 60 38 32 39 46 38 38 47 60 65 67 46 59 62 53 54 53 48 44 37 32
28 28 28 25 20 21 28 42 44 38 34 36 40 45 44 37 34 37 40 48 43 40 49 50 55 40 39 36 35 44 48 42 52 54 63 65 64 60 67 62 55 44 34 36 37
33 35 35 25 18 26 36 46 40 34 37 38 46 39 46 38 40 41 44 39 37 31 31 42 61 43 38 37 38 40 39 53 47 62 71 59 65 63 64 62 57 53 47 46 45
31 39 34 20 18 34 48 49 47 44 44 46 50 50 51 53 46 47 48 45 42 43 38 42 46 61 47 50 56 47 48 46 48 52 67 71 62 55 62 63 60 55 46 51 51
29 38 26 14 35 39 50 46 39 51 43 45 44 49 55 56 58 56 58 52 39 38 47 42 48 62 71 59 47 45 50 50 58 61 61 71 74 53 56 59 62 65 56 52 52
30 33 24 21 43 47 45 45 41 49 48 47 49 46 46 55 60 52 50 43 41 44 44 42 46 55 48 49 41 47 48 49 55 61 68 74 72 48 48 50 51 55 52 48 47
27 35 29 28 35 40 47 52 53 44 47 43 46 45 50 56 53 53 47 42 41 40 37 36 44 53 64 59 57 64 57 54 54 60 61 59 59 50 52 52 51 51 46 46 48
26 33 30 38 38 40 40 46 53 51 37 39 42 44 48 53 52 53 51 47 40 37 37 37 54 52 54 53 52 57 64 63 65 67 71 71 70 59 45 49 48 42 43 45 48
29 31 30 37 36 39 39 45 50 52 47 51 50 46 45 49 47 52 43 40 41 37 39 37 50 52 62 62 60 64 66 68 67 69 69 62 58 40 40 42 46 43 45 48 49
23 25 29 35 36 40 42 42 42 39 36 35 38 43 45 41 35 36 36 37 41 46 49 47 51 55 72 65 61 69 62 58 57 51 50 59 48 46 45 48 48 49 47 50 52
Wind_Direction
329 326 323 320 317 317 319 321 320 319 320 322 323 322 322 326 336 349 356 358 3 33 13 13 4 3 1 355 357 0 342 339 342 346 349 357 354 3 4 357 355 0 359 357 358
323 321 318 315 315 317 318 318 319 320 321 322 322 322 322 328 338 338 346 351 359 33 358 348 340 345 338 339 341 336 332 331 339 338 334 336 337 337 337 336 334 338 339 340 344
319 318 317 316 316 317 318 317 318 318 320 322 323 322 322 337 330 341 348 8 15 15 352 347 344 334 322 326 326 327 320 325 324 324 325 325 324 328 325 322 322 325 330 331 326
316 316 316 316 316 316 317 318 317 318 320 322 324 326 327 338 317 342 344 354 357 350 345 336 331 321 319 317 321 316 316 317 320 321 319 318 320 317 315 275 317 315 316 318 303
314 315 315 314 314 315 316 316 317 318 319 320 321 322 329 323 316 327 334 341 343 338 331 327 322 319 314 318 317 312 315 316 316 316 315 315 305 298 283 276 313 312 310 295 296
311 312 313 314 314 314 314 314 314 315 316 318 320 321 319 310 324 334 337 336 332 328 322 321 320 318 315 312 311 316 315 315 316 315 312 309 271 318 274 317 317 316 305 294 279
309 311 312 313 313 313 312 312 311 312 313 315 318 320 311 307 320 322 322 319 321 321 317 317 316 317 323 316 317 316 309 308 314 316 316 319 274 282 289 316 310 314 316 312 275
309 309 311 312 312 312 311 310 309 312 315 315 319 318 306 320 321 314 312 314 319 318 318 321 317 313 312 318 312 310 311 299 310 326 323 320 258 265 313 320 319 312 315 315 305
309 310 311 312 313 313 313 314 320 325 325 327 317 312 305 323 314 317 315 313 320 320 322 327 319 311 315 309 301 307 304 307 285 321 318 310 265 259 311 318 313 269 272 290 292
309 310 312 313 314 315 315 322 322 322 326 322 318 309 308 309 318 320 322 323 314 315 313 310 307 301 305 303 300 301 301 308 307 303 314 308 270 274 265 311 272 275 272 272 268
308 310 312 313 314 316 320 320 314 310 312 303 305 301 306 314 315 312 314 310 310 305 299 303 297 294 299 297 302 303 302 296 306 310 305 281 269 296 302 305 272 275 275 288 275
305 308 310 313 315 316 322 316 316 313 302 302 297 294 296 304 298 301 308 301 300 295 299 300 292 296 303 301 298 299 298 299 305 311 309 307 274 307 300 292 287 288 274 279 311
301 303 307 310 315 317 316 317 324 322 307 303 302 299 299 297 292 291 289 299 298 295 294 291 298 304 297 297 297 297 299 303 303 309 307 305 297 309 315 313 304 309 307 313 314
297 300 303 308 310 313 313 322 326 327 302 301 305 309 316 312 303 312 299 298 299 296 299 298 307 301 300 298 299 295 303 302 303 307 305 314 287 305 311 313 316 310 317 326 320
296 296 300 307 305 308 313 323 327 325 296 307 308 326 327 316 322 322 319 306 294 297 302 302 306 305 300 302 304 299 306 303 303 303 303 305 304 304 312 310 312 315 329 327 321
305 309 309 308 309 310 318 322 316 299 288 301 308 308 308 308 309 314 314 316 314 301 296 297 306 301 300 303 302 306 304 303 303 302 295 298 301 274 310 315 324 324 319 321 318
307 308 312 312 308 319 317 312 298 285 303 300 304 307 305 304 304 301 299 297 297 299 297 301 298 300 300 299 302 300 298 298 296 293 292 300 293 287 297 302 305 311 316 317 316
300 299 300 302 312 319 314 299 286 292 288 302 306 306 300 302 299 298 297 293 293 298 299 295 293 296 299 296 295 291 292 291 292 291 291 295 287 289 298 300 304 308 312 318 324
301 294 295 299 302 304 293 283 284 288 294 294 296 295 294 295 294 295 292 291 292 292 291 294 291 299 297 298 296 293 289 295 290 289 290 289 290 294 293 297 303 311 316 318 321
294 292 289 298 298 293 286 280 284 287 293 294 290 292 291 294 295 295 293 296 298 298 299 297 293 297 297 297 294 293 299 291 291 289 287 287 286 290 295 298 302 304 309 311 311
296 290 292 298 297 283 275 280 285 284 285 286 287 287 287 290 290 290 290 291 294 297 296 297 292 290 294 288 291 292 288 289 291 286 287 288 287 290 294 297 300 303 307 308 309
295 288 304 297 281 282 278 280 289 285 288 287 288 287 286 287 287 286 286 287 297 298 293 293 296 289 287 292 292 289 288 289 287 289 285 286 285 292 295 298 299 300 306 310 310
293 292 302 293 282 279 284 287 289 286 286 287 287 289 292 287 288 286 287 293 292 295 293 297 291 292 296 296 296 289 292 292 290 288 284 285 289 299 301 303 304 304 308 313 316
299 292 294 287 287 287 286 285 285 290 288 289 289 291 290 286 286 288 291 296 299 295 297 297 289 287 287 290 294 291 293 295 296 293 294 292 298 306 304 305 307 307 310 311 313
301 293 297 291 289 288 288 289 288 289 294 296 292 290 291 288 288 289 292 293 295 298 298 294 288 290 290 292 294 295 293 293 290 290 288 294 296 301 304 305 308 309 311 313 313
298 298 300 295 295 293 292 290 287 290 290 288 288 292 293 288 289 290 293 294 292 299 298 300 291 295 290 292 294 293 292 291 290 291 291 294 295 306 308 309 309 307 308 309 311
309 308 303 297 297 292 291 292 294 298 300 298 298 295 292 295 299 297 295 294 293 293 293 293 293 294 289 294 296 290 293 293 293 297 297 294 299 306 304 306 307 305 304 305 308